Location: Arthez
(43.0833°N, 0.2500°W)
Time: 06:59:45
(UTC+00:00)

Cosmos 2251 Rocket - Pass Details

Date: 23 October 2021
Orbit: 765 x 791 km, 74.0° (Epoch: 02 December)

Event Time Altitude Azimuth Distance (km) Brightness Sun altitude
Rises 18:45:06 0° 341° (NNW) 3,250 7.0 -18.8°
Reaches altitude 10° 18:47:30 10° 344° (NNW) 2,317 6.2 -19.3°
Maximum altitude 18:52:44 69° 68° (ENE) 823 3.4 -20.2°
Enters shadow 18:55:29 28° 145° (SE) 1,404 4.5 -20.7°
